Hourly Data Report for October 20, 2016

All times are specified in Local Standard Time (LST). Add 1 hour to adjust for Daylight Saving Time where and when it is observed.

KUGLUKTUK A
NUNAVUT

67°49'00.000" N
115°08'38.000" W
22.60 m
2300903
71938
YCO

Download Data

Hourly Data (October 2016)
Hourly Data Report for October 20, 2016
Temp Definition
°C
Dew Point Temp Definition
°C
Rel Hum Definition
%
Wind Dir Definition
10's deg

Wind Spd Definition
km/h
Visibility Definition
km
Stn Press Definition
kPa
Hmdx Definition


Wind Chill Definition


Weather Definition


TIME
00:00 Legend Double Dagger -8.6 -10.7 85 12 9 24.1 101.22   -13 Snow
01:00 Legend Double Dagger -9.3 -11.2 86 12 7 24.1 101.21   -13 LegendNANA
02:00 Legend Double Dagger -9.4 -11.3 86 13 10 24.1 101.20   -15 Cloudy
03:00 Legend Double Dagger -7.7 -10.1 83 12 10 24.1 101.18   -13 LegendNANA
04:00 Legend Double Dagger -7.0 -9.4 83 12 12 24.1 101.15   -12 LegendNANA
05:00 Legend Double Dagger -6.4 -8.7 84 12 8 24.1 101.13   -10 Cloudy
06:00 Legend Double Dagger -6.2 -8.3 85 12 12 32.2 101.10   -11 LegendNANA
07:00 Legend Double Dagger -6.2 -8.3 85 12 14 24.1 101.05   -12 LegendNANA
08:00 Legend Double Dagger -6.2 -8.3 85 12 12 24.1 101.05   -11 Cloudy
09:00 Legend Double Dagger -5.8 -7.5 88 12 11 24.1 101.04   -11 LegendNANA
10:00 Legend Double Dagger -5.7 -7.5 87 11 13 24.1 101.02   -11 LegendNANA
11:00 Legend Double Dagger -5.4 -7.4 86 10 9 24.1 101.00   -9 Cloudy
12:00 Legend Double Dagger -5.0 -7.0 86 12 10 24.1 100.98   -9 LegendNANA
13:00 Legend Double Dagger -4.6 -6.4 87 13 8 24.1 100.97   -8 LegendNANA
14:00 Legend Double Dagger -4.5 -6.7 85 11 10 24.1 100.95   -9 Cloudy
15:00 Legend Double Dagger -4.8 -7.4 82 12 10 24.1 100.95   -9 LegendNANA
16:00 Legend Double Dagger -4.9 -7.4 83 11 10 24.1 100.95   -9 LegendNANA
17:00 Legend Double Dagger -4.9 -7.5 82 12 10 24.1 100.95   -9 Cloudy
18:00 Legend Double Dagger -5.2 -7.7 83 10 12 24.1 100.93   -10 LegendNANA
19:00 Legend Double Dagger -5.0 -7.1 85 12 10 24.1 100.93   -9 LegendNANA
20:00 Legend Double Dagger -4.7 -7.5 81 13 10 24.1 100.92   -9 Cloudy
21:00 Legend Double Dagger -6.4 -8.5 85 16 16 24.1 100.90   -13 LegendNANA
22:00 Legend Double Dagger -9.2 -10.8 88 15 15 24.1 100.90   -16 LegendNANA
23:00 Legend Double Dagger -11.4 -12.6 91 22 15 24.1 100.90   -18 Mostly Cloudy

Notes on Data Quality.

Legend

  • E = Estimated
  • M = Missing
  • NA = Not Available
  • ‡ = Partner data that is not subject to review by the National Climate Archives
Date modified: